TimeBST,TemperatureF,Dew PointF,Humidity,Sea Level PressureIn,VisibilityMPH,Wind Direction,Wind SpeedMPH,Gust SpeedMPH,PrecipitationIn,Events,Conditions,WindDirDegrees,DateUTC
12:50 AM,55,54,94,30.01,7,SSW,6.9,,,,Overcast,210,2013-10-17 23:50:00
12:50 AM,55.4,53.6,94,30.01,6.2,SSW,6.9,-,N/A,,Overcast,210,2013-10-17 23:50:00
1:50 AM,55.4,53.6,94,30.01,6.2,SW,5.8,-,N/A,,Overcast,230,2013-10-18 00:50:00
2:50 AM,55.4,53.6,94,30.01,6.2,SSW,1.2,-,N/A,,Overcast,200,2013-10-18 01:50:00
3:50 AM,54,53,95,30.01,9,SSE,3.5,,,,Mostly Cloudy,160,2013-10-18 02:50:00
3:50 AM,53.6,53.6,100,30.01,6.2,SSE,3.5,-,N/A,,Mostly Cloudy,160,2013-10-18 02:50:00
4:50 AM,53.6,53.6,100,29.98,6.2,SE,5.8,-,N/A,,Mostly Cloudy,130,2013-10-18 03:50:00
5:50 AM,53.6,53.6,100,29.98,5.0,ESE,8.1,-,N/A,,Scattered Clouds,120,2013-10-18 04:50:00
6:14 AM,53.6,53.6,100,29.98,4.3,South,3.5,-,N/A,,Overcast,180,2013-10-18 05:14:00
6:50 AM,53,53,99,29.99,4,SSE,5.8,,,,Mist,150,2013-10-18 05:50:00
6:50 AM,53.6,53.6,100,29.98,4.3,SSE,5.8,-,N/A,,Scattered Clouds,150,2013-10-18 05:50:00
7:32 AM,53.6,53.6,100,29.98,0.7,SE,8.1,-,N/A,,Mostly Cloudy,130,2013-10-18 06:32:00
7:50 AM,53.6,53.6,100,29.98,0.2,ESE,8.1,-,N/A,Fog,Fog,110,2013-10-18 06:50:00
8:50 AM,-9999,-9999,N/A,29.98,0.5,ENE,3.5,-,N/A,Fog,Fog,70,2013-10-18 07:50:00
9:10 AM,53.6,53.6,100,29.98,2.5,East,4.6,-,N/A,,Overcast,100,2013-10-18 08:10:00
9:50 AM,55,54,98,29.98,2,ESE,9.2,,,Fog,Light Fog,120,2013-10-18 08:50:00
9:50 AM,55.4,55.4,100,29.98,2.5,ESE,9.2,-,N/A,,Mostly Cloudy,120,2013-10-18 08:50:00
10:14 AM,57.2,55.4,94,29.98,3.1,SE,9.2,-,N/A,,Mostly Cloudy,130,2013-10-18 09:14:00
10:50 AM,57.2,55.4,94,29.98,3.7,ESE,9.2,-,N/A,,Haze,120,2013-10-18 09:50:00
11:50 AM,57.2,55.4,94,29.95,5.6,East,9.2,-,N/A,,Haze,100,2013-10-18 10:50:00
12:50 PM,60,55,79,29.94,9,ESE,11.5,,,,Partly Cloudy,120,2013-10-18 11:50:00
12:50 PM,60.8,55.4,82,29.92,6.2,ESE,11.5,-,N/A,,Mostly Cloudy,120,2013-10-18 11:50:00
1:50 PM,60.8,55.4,82,29.92,6.2,SE,11.5,-,N/A,,Mostly Cloudy,140,2013-10-18 12:50:00
2:50 PM,60.8,53.6,77,29.89,6.2,SE,15.0,-,N/A,,Scattered Clouds,140,2013-10-18 13:50:00
3:24 PM,60.8,51.8,72,29.89,6.2,SE,15.0,-,N/A,,Mostly Cloudy,140,2013-10-18 14:24:00
3:50 PM,60,52,69,29.89,16,SE,12.7,,,,Mostly Cloudy,130,2013-10-18 14:50:00
3:50 PM,60.8,51.8,72,29.89,6.2,SE,12.7,-,N/A,,Mostly Cloudy,130,2013-10-18 14:50:00
4:50 PM,59.0,53.6,82,29.86,6.2,ESE,11.5,-,N/A,,Overcast,120,2013-10-18 15:50:00
5:50 PM,57.2,53.6,88,29.83,6.2,East,12.7,-,N/A,,Overcast,100,2013-10-18 16:50:00
6:50 PM,57,53,84,29.83,9,ESE,12.7,,,,Overcast,110,2013-10-18 17:50:00
6:50 PM,57.2,53.6,88,29.83,6.2,ESE,12.7,-,N/A,,Overcast,110,2013-10-18 17:50:00
7:50 PM,57.2,51.8,82,29.83,6.2,SE,15.0,-,N/A,,Mostly Cloudy,130,2013-10-18 18:50:00
8:50 PM,55.4,51.8,88,29.80,6.2,ESE,11.5,-,N/A,,Mostly Cloudy,120,2013-10-18 19:50:00
9:50 PM,56,52,83,29.79,11,ESE,11.5,,,,Overcast,120,2013-10-18 20:50:00
9:50 PM,57.2,51.8,82,29.77,6.2,ESE,11.5,-,N/A,,Mostly Cloudy,120,2013-10-18 20:50:00
10:50 PM,57.2,53.6,88,29.77,6.2,SE,13.8,-,N/A,,Mostly Cloudy,130,2013-10-18 21:50:00
11:50 PM,55.4,53.6,94,29.74,6.2,SE,11.5,-,N/A,Rain,Light Rain,140,2013-10-18 22:50:00